Location: Cannifist
(18.2333°N, 63.0167°W)
Time: 11:34:44
(UTC+00:00)

Envisat - Visible Passes

Search period start: 18 June 2021 00:00
Search period end: 28 June 2021 00:00
Orbit: 764 x 766 km, 98.1° (Epoch: 18 June)

Date Brightness Start Highest point End Pass type
(mag) Time Alt. Az. Time Alt. Az. Time Alt. Az.
18 Jun 4.6 08:50:23 10° NE 08:55:00 35° E 08:59:35 10° SSE visible
19 Jun 5.8 08:15:55 10° ENE 08:18:05 13° E 08:20:16 10° ESE visible
21 Jun 5.1 08:39:19 10° NE 08:43:31 26° E 08:47:41 10° SSE visible
23 Jun 3.9 09:03:56 10° NNE 09:08:53 53° E 09:13:48 10° S visible
24 Jun 5.5 08:28:26 10° NE 08:32:01 19° E 08:35:35 10° SE visible
26 Jun 4.4 08:52:42 10° NNE 08:57:24 39° E 09:02:06 10° SSE visible
27 Jun 5.7 08:17:53 10° ENE 08:20:30 14° E 08:23:08 10° SE visible
